This demonstration page uses our WeatherBlox Daily Observations layout. Learn more.

Left ArrowRight Arrow

39.92423, -83.80882

Hourly Observations for December 27, 2015

Temp ( °F °C ) Dew Point ( °F °C ) Humidity (%) Winds ( mph kmh ) Pressure ( in mb ) Visibility ( mi km ) Precip ( " mm )
12:11 am 00:11 Cloudy 61 16 61 16 100 100 SSE 8 13 30 1016 10 16.0934 0 0
12:56 am 00:56 Mostly Cloudy 61 16.1 61 16.1 100 100 S 12 19 29.98 1015 10 16.0934 0 0
1:24 am 01:24 Cloudy 61 16 61 16 100 100 S 8 13 29.97 1015 10 16.0934 0 0
1:56 am 01:56 Cloudy 62 16.6 62 16.6 100 100 S 6 9 29.95 1014 10 16.0934 0 0
2:56 am 02:56 Cloudy 64 17.7 64 17.7 100 100 SSW 15 24 29.94 1014 10 16.0934 0 0
3:56 am 03:56 Cloudy 66 18.8 65 18.3 97 97 S 15 24 29.92 1013 10 16.0934 0 0
4:56 am 04:56 Cloudy 67 19.4 65 18.3 93 93 S 21 33 29.9 1012 10 16.0934 0 0
5:56 am 05:56 Cloudy 67 19.4 65 18.3 93 93 S 17 28 29.89 1012 10 16.0934 0 0
6:14 am 06:14 Cloudy 66 19 64 18 94 94 S 18 30 29.88 1012 10 16.0934 0 0
6:24 am 06:24 Cloudy 66 19 64 18 94 94 SSW 16 26 29.88 1012 10 16.0934 0 0
6:56 am 06:56 Cloudy 67 19.4 65 18.3 93 93 S 17 28 29.89 1012 10 16.0934 0 0
7:05 am 07:05 Cloudy 66 19 64 18 94 94 S 17 28 29.88 1012 10 16.0934 0 0
7:12 am 07:12 Cloudy 66 19 64 18 94 94 S 15 24 29.88 1012 10 16.0934 0 0
7:34 am 07:34 Cloudy 63 17 61 16 94 94 WNW 16 26 29.91 1013 10 16.0934 0 0
7:44 am 07:44 Cloudy with Light Rain 61 16 57 14 88 88 N 16 26 29.91 1013 5 8.0467 0 0.0254
7:56 am 07:56 Cloudy with Light Rain 58 14.4 58 14.4 100 100 N 15 24 29.93 1013 3 4.82802 0.02 0.508
7:59 am 07:59 Mostly Cloudy with Heavy Rain 57 14 57 14 100 100 N 16 26 29.94 1014 2 3.21868 0.03 0.762
8:01 am 08:01 Mostly Cloudy with Heavy Rain 57 14 57 14 100 100 NNW 15 24 29.97 1015 1.25 2.011675 0.08 2.032
8:05 am 08:05 Cloudy with Heavy Rain 57 14 57 14 100 100 NNW 14 22 29.97 1015 0.75 1.207005 0.14 3.556
8:14 am 08:14 Cloudy with Heavy Rain 57 14 57 14 100 100 N 13 20 29.97 1015 1.25 2.011675 0.21 5.334
8:20 am 08:20 Mostly Cloudy with Heavy Rain 57 14 57 14 100 100 N 14 22 29.94 1014 2 3.21868 0.23 5.842
8:27 am 08:27 Cloudy with Rain 55 13 55 13 100 100 N 16 26 29.97 1015 3 4.82802 0.24 6.096
8:31 am 08:31 Cloudy with Heavy Rain 55 13 55 13 100 100 N 13 20 29.97 1015 2.5 4.02335 0.25 6.35
8:42 am 08:42 Cloudy with Light Rain 55 13 55 13 100 100 N 14 22 29.97 1015 4 6.43736 0.27 6.858
8:49 am 08:49 Mostly Cloudy with Rain 55 13 55 13 100 100 N 15 24 29.94 1014 2.5 4.02335 0.29 7.366
8:56 am 08:56 Cloudy with Heavy Rain 54 12.2 54 12.2 100 100 NNE 9 15 29.95 1014 1.5 2.41401 0.35 8.89
8:59 am 08:59 Cloudy with Heavy Rain 54 12 54 12 100 100 NNE 8 13 29.97 1015 1.25 2.011675 0.02 0.508
9:11 am 09:11 Cloudy with Light Rain 54 12 54 12 100 100 NNE 10 17 29.97 1015 2 3.21868 0.06 1.524
9:20 am 09:20 Cloudy with Light Rain 54 12 54 12 100 100 N 9 15 29.97 1015 6 9.65604 0.06 1.524
9:56 am 09:56 Cloudy 53 11.6 53 11.6 100 100 NNW 13 20 29.98 1015 10 16.0934 0.06 1.524
10:56 am 10:56 Cloudy with Light Rain 50 10 50 10 100 100 NNW 14 22 30.02 1017 6 9.65604 0.01 0.254
11:42 am 11:42 Cloudy with Rain 48 9 48 9 100 100 N 12 19 30.06 1018 2.5 4.02335 0.09 2.286
11:56 am 11:56 Cloudy with Rain 47 8.3 47 8.3 100 100 N 14 22 30.04 1017 2.5 4.02335 0.13 3.302
12:03 pm 12:03 Cloudy with Rain 46 8 46 8 100 100 NNW 13 20 30.09 1019 1.5 2.41401 0.02 0.508
12:09 pm 12:09 Cloudy with Heavy Rain 46 8 46 8 100 100 NNW 12 19 30.09 1019 1.25 2.011675 0.05 1.27
12:16 pm 12:16 Cloudy with Rain 46 8 46 8 100 100 NNW 13 20 30.09 1019 1.75 2.816345 0.06 1.524
12:23 pm 12:23 Cloudy with Rain 46 8 46 8 100 100 NW 13 20 30.09 1019 2 3.21868 0.09 2.286
12:40 pm 12:40 Cloudy with Light Rain 45 7 45 7 100 100 NNW 14 22 30.09 1019 3 4.82802 0.1 2.54
12:56 pm 12:56 Cloudy with Rain 45 7.2 45 7.2 100 100 N 12 19 30.05 1018 3 4.82802 0.13 3.302
1:10 pm 13:10 Cloudy with Rain 45 7 45 7 100 100 NNE 14 22 30.06 1018 2.5 4.02335 0.02 0.508
1:21 pm 13:21 Cloudy with Light Rain 45 7 45 7 100 100 N 17 28 30.06 1018 5 8.0467 0.03 0.762
1:37 pm 13:37 Cloudy with Light Rain 45 7 43 6 93 93 NNE 13 20 30.06 1018 3 4.82802 0.06 1.524
1:40 pm 13:40 Cloudy with Light Rain 45 7 43 6 93 93 NNE 14 22 30.06 1018 4 6.43736 0.06 1.524
1:56 pm 13:56 Cloudy with Light Rain 43 6.1 42 5.5 96 96 N 15 24 30.03 1017 10 16.0934 0.07 1.778
2:28 pm 14:28 Cloudy with Light Rain 43 6 41 5 93 93 NNE 17 28 30.09 1019 10 16.0934 0.01 0.254
2:56 pm 14:56 Cloudy 42 5.5 41 5 97 97 N 23 37 30.08 1019 10 16.0934 0.01 0.254
3:44 pm 15:44 Cloudy 39 4 39 4 100 100 N 17 28 30.15 1021 10 16.0934 0 0.0254
3:56 pm 15:56 Cloudy with Light Rain 40 4.4 38 3.3 93 93 NNE 16 26 30.13 1020 4 6.43736 0.01 0.254
4:13 pm 16:13 Cloudy with Light Rain 39 4 37 3 93 93 NNE 16 26 30.21 1023 5 8.0467 0.02 0.508
4:22 pm 16:22 Cloudy with Light Rain 39 4 37 3 93 93 NNE 17 28 30.21 1023 4 6.43736 0.03 0.762
4:30 pm 16:30 Mostly Cloudy with Light Rain 39 4 37 3 93 93 NNE 17 28 30.21 1023 3 4.82802 0.05 1.27
4:56 pm 16:56 Cloudy with Light Rain 39 3.8 38 3.3 97 97 NNE 15 24 30.17 1022 5 8.0467 0.08 2.032
5:08 pm 17:08 Cloudy with Rain 39 4 37 3 93 93 N 16 26 30.24 1024 5 8.0467 0.02 0.508
5:56 pm 17:56 Cloudy with Light Rain 38 3.3 37 2.7 96 96 NNE 16 26 30.2 1023 9 14.48406 0.06 1.524
6:31 pm 18:31 Cloudy with Light Rain 37 3 36 2 93 93 NNE 14 22 30.27 1025 10 16.0934 0.02 0.508
6:56 pm 18:56 Cloudy with Light Rain 38 3.3 37 2.7 96 96 NNE 15 24 30.22 1023 7 11.26538 0.03 0.762
7:56 pm 19:56 Cloudy with Light Rain 38 3.3 36 2.2 93 93 NNE 16 26 30.26 1025 5 8.0467 0.07 1.778
8:25 pm 20:25 Cloudy with Rain 37 3 37 3 100 100 NE 18 30 30.3 1026 5 8.0467 0.03 0.762
8:40 pm 20:40 Cloudy with Light Rain 37 3 36 2 93 93 NE 16 26 30.3 1026 6 9.65604 0.04 1.016
8:49 pm 20:49 Cloudy with Light Rain 37 3 37 3 100 100 NE 14 22 30.3 1026 9 14.48406 0.04 1.016
8:56 pm 20:56 Cloudy with Light Rain 37 2.7 36 2.2 97 97 NNE 16 26 30.24 1024 10 16.0934 0.05 1.27
9:25 pm 21:25 Cloudy 37 3 36 2 93 93 NE 14 22 30.33 1027 10 16.0934 0 0.0254
9:56 pm 21:56 Cloudy 37 2.7 35 1.6 93 93 NE 18 30 30.28 1025 10 16.0934 0 0.0254
10:36 pm 22:36 Cloudy with Light Rain 37 3 36 2 93 93 NE 18 30 30.33 1027 10 16.0934 0 0.0254
10:56 pm 22:56 Cloudy with Light Rain 37 2.7 35 1.6 93 93 NE 17 28 30.27 1025 10 16.0934 0.01 0.254
11:41 pm 23:41 Cloudy with Light Rain 37 3 36 2 93 93 NE 20 31 30.33 1027 10 16.0934 0 0.0254
11:56 pm 23:56 Cloudy 37 2.7 35 1.6 93 93 NE 16 26 30.27 1025 10 16.0934 0 0.0254

Powered by AerisWeather